Time,TemperatureF,DewpointF,PressureIn,WindDirection,WindDirectionDegrees,WindSpeedMPH,WindSpeedGustMPH,Humidity,HourlyPrecipIn,Conditions,Clouds,dailyrainin,SoftwareType,DateUTC
2013-02-07 00:02:00,20.0,9.0,30.39,WNW,296,0.0,1.0,62,0.00,,,0.00,,2013-02-07 05:02:00,
2013-02-07 00:12:00,20.0,9.0,30.39,WNW,296,0.0,1.0,62,0.00,,,0.00,,2013-02-07 05:12:00,
2013-02-07 00:21:00,20.0,10.0,30.39,WNW,296,0.0,1.0,64,0.00,,,0.00,,2013-02-07 05:21:00,
2013-02-07 00:32:00,19.0,10.0,30.39,West,276,0.0,1.0,66,0.00,,,0.00,,2013-02-07 05:32:00,
2013-02-07 00:42:00,19.0,10.0,30.39,West,276,0.0,1.0,66,0.00,,,0.00,,2013-02-07 05:42:00,
2013-02-07 00:52:00,19.0,9.0,30.39,WNW,283,0.0,1.0,65,0.00,,,0.00,,2013-02-07 05:52:00,
2013-02-07 01:02:00,19.0,10.0,30.40,WNW,294,0.0,1.0,66,0.00,,,0.00,,2013-02-07 06:02:00,
2013-02-07 01:11:00,19.0,10.0,30.40,WNW,294,0.0,1.0,66,0.00,,,0.00,,2013-02-07 06:11:00,
2013-02-07 01:22:00,19.0,10.0,30.40,WNW,303,0.0,3.0,66,0.00,,,0.00,,2013-02-07 06:22:00,
2013-02-07 01:32:00,18.0,9.0,30.40,WNW,296,0.0,1.0,66,0.00,,,0.00,,2013-02-07 06:32:00,
2013-02-07 01:43:00,18.0,9.0,30.40,WNW,296,0.0,1.0,66,0.00,,,0.00,,2013-02-07 06:43:00,
2013-02-07 01:52:00,18.0,9.0,30.39,WNW,296,0.0,1.0,67,0.00,,,0.00,,2013-02-07 06:52:00,
2013-02-07 02:02:00,18.0,9.0,30.39,WNW,301,0.0,3.0,66,0.00,,,0.00,,2013-02-07 07:02:00,
2013-02-07 02:11:00,18.0,9.0,30.39,WNW,301,0.0,3.0,66,0.00,,,0.00,,2013-02-07 07:11:00,
2013-02-07 02:22:00,18.0,9.0,30.39,WNW,299,0.0,1.0,67,0.00,,,0.00,,2013-02-07 07:22:00,
2013-02-07 02:32:00,17.0,8.0,30.39,WNW,300,0.0,1.0,67,0.00,,,0.00,,2013-02-07 07:32:00,
2013-02-07 02:42:00,17.0,8.0,30.39,WNW,300,0.0,1.0,67,0.00,,,0.00,,2013-02-07 07:42:00,
2013-02-07 02:52:00,17.0,8.0,30.39,WNW,301,0.0,2.0,68,0.00,,,0.00,,2013-02-07 07:52:00,
2013-02-07 03:02:00,17.0,9.0,30.40,WNW,295,0.0,0.0,70,0.00,,,0.00,,2013-02-07 08:02:00,
2013-02-07 03:11:00,17.0,9.0,30.40,WNW,295,0.0,0.0,70,0.00,,,0.00,,2013-02-07 08:11:00,
2013-02-07 03:22:00,17.0,9.0,30.41,NW,308,0.0,1.0,70,0.00,,,0.00,,2013-02-07 08:22:00,
2013-02-07 03:32:00,16.0,9.0,30.41,West,280,0.0,1.0,74,0.00,,,0.00,,2013-02-07 08:32:00,
2013-02-07 03:42:00,16.0,9.0,30.41,West,280,0.0,1.0,74,0.00,,,0.00,,2013-02-07 08:42:00,
2013-02-07 03:52:00,16.0,9.0,30.43,WNW,287,0.0,0.0,73,0.00,,,0.00,,2013-02-07 08:52:00,
2013-02-07 04:02:00,16.0,9.0,30.43,WNW,287,0.0,0.0,73,0.00,,,0.00,,2013-02-07 09:02:00,
2013-02-07 04:11:00,16.0,9.0,30.43,WNW,287,0.0,0.0,73,0.00,,,0.00,,2013-02-07 09:11:00,
2013-02-07 04:22:00,16.0,9.0,30.43,WNW,294,0.0,1.0,75,0.00,,,0.00,,2013-02-07 09:22:00,
2013-02-07 04:32:00,16.0,9.0,30.43,WNW,297,0.0,1.0,74,0.00,,,0.00,,2013-02-07 09:32:00,
2013-02-07 04:42:00,16.0,9.0,30.43,WNW,297,0.0,1.0,74,0.00,,,0.00,,2013-02-07 09:42:00,
2013-02-07 04:52:00,16.0,7.0,30.43,NW,317,0.0,3.0,68,0.00,,,0.00,,2013-02-07 09:52:00,
2013-02-07 05:02:00,16.0,7.0,30.43,NW,312,1.0,3.0,67,0.00,,,0.00,,2013-02-07 10:02:00,
2013-02-07 05:11:00,16.0,7.0,30.43,NW,312,1.0,3.0,67,0.00,,,0.00,,2013-02-07 10:11:00,
2013-02-07 05:22:00,16.0,7.0,30.43,NNW,334,2.0,6.0,67,0.00,,,0.00,,2013-02-07 10:22:00,
2013-02-07 05:32:00,16.0,7.0,30.43,WNW,302,0.0,5.0,68,0.00,,,0.00,,2013-02-07 10:32:00,
2013-02-07 05:42:00,16.0,7.0,30.43,WNW,302,0.0,5.0,68,0.00,,,0.00,,2013-02-07 10:42:00,
2013-02-07 05:51:00,16.0,7.0,30.45,NW,311,0.0,5.0,68,0.00,,,0.00,,2013-02-07 10:51:00,
2013-02-07 06:02:00,16.0,8.0,30.45,NW,318,0.0,2.0,70,0.00,,,0.00,,2013-02-07 11:02:00,
2013-02-07 06:11:00,16.0,8.0,30.45,NW,318,0.0,2.0,70,0.00,,,0.00,,2013-02-07 11:11:00,
2013-02-07 06:23:00,16.0,7.0,30.45,NW,317,0.0,3.0,68,0.00,,,0.00,,2013-02-07 11:23:00,
2013-02-07 06:32:00,15.0,6.0,30.47,NW,310,0.0,2.0,68,0.00,,,0.00,,2013-02-07 11:32:00,
2013-02-07 06:44:00,15.0,6.0,30.47,NW,310,0.0,2.0,68,0.00,,,0.00,,2013-02-07 11:44:00,
2013-02-07 06:52:00,15.0,7.0,30.47,WNW,300,0.0,1.0,69,0.00,,,0.00,,2013-02-07 11:52:00,
2013-02-07 07:02:00,15.0,7.0,30.49,NW,307,1.0,2.0,69,0.00,,,0.00,,2013-02-07 12:02:00,
2013-02-07 07:12:00,15.0,7.0,30.49,NW,307,1.0,2.0,69,0.00,,,0.00,,2013-02-07 12:12:00,
2013-02-07 07:22:00,15.0,7.0,30.50,NW,307,1.0,2.0,71,0.00,,,0.00,,2013-02-07 12:22:00,
2013-02-07 07:33:00,15.0,7.0,30.51,NNE,19,2.0,7.0,69,0.00,,,0.00,,2013-02-07 12:33:00,
2013-02-07 07:42:00,15.0,7.0,30.51,NNE,19,2.0,7.0,69,0.00,,,0.00,,2013-02-07 12:42:00,
2013-02-07 07:53:00,15.0,7.0,30.52,NNE,30,1.0,6.0,69,0.00,,,0.00,,2013-02-07 12:53:00,
2013-02-07 08:03:00,14.0,5.0,30.52,NW,311,2.0,6.0,68,0.00,,,0.00,,2013-02-07 13:03:00,
2013-02-07 08:12:00,14.0,5.0,30.52,NW,311,2.0,6.0,68,0.00,,,0.00,,2013-02-07 13:12:00,
2013-02-07 08:22:00,14.0,6.0,30.53,NW,320,1.0,5.0,70,0.00,,,0.00,,2013-02-07 13:22:00,
2013-02-07 08:32:00,15.0,6.0,30.53,NW,325,0.0,3.0,68,0.00,,,0.00,,2013-02-07 13:32:00,
2013-02-07 08:42:00,15.0,6.0,30.53,NW,325,0.0,3.0,68,0.00,,,0.00,,2013-02-07 13:42:00,
2013-02-07 08:52:00,15.0,5.0,30.54,North,353,0.0,4.0,64,0.00,,,0.00,,2013-02-07 13:52:00,
2013-02-07 09:02:00,15.0,3.0,30.55,NNW,329,1.0,3.0,59,0.00,,,0.00,,2013-02-07 14:02:00,
2013-02-07 09:12:00,15.0,3.0,30.55,NNW,329,1.0,3.0,59,0.00,,,0.00,,2013-02-07 14:12:00,
2013-02-07 09:22:00,16.0,4.0,30.55,NW,313,2.0,4.0,59,0.00,,,0.00,,2013-02-07 14:22:00,
2013-02-07 09:32:00,16.0,3.0,30.55,NNW,335,1.0,5.0,57,0.00,,,0.00,,2013-02-07 14:32:00,
2013-02-07 09:42:00,16.0,3.0,30.55,NNW,335,1.0,5.0,57,0.00,,,0.00,,2013-02-07 14:42:00,
2013-02-07 09:52:00,17.0,3.0,30.56,NW,310,1.0,5.0,54,0.00,,,0.00,,2013-02-07 14:52:00,
2013-02-07 10:02:00,18.0,3.0,30.56,NNE,12,4.0,7.0,52,0.00,,,0.00,,2013-02-07 15:02:00,
2013-02-07 10:11:00,18.0,3.0,30.56,NNE,12,4.0,7.0,52,0.00,,,0.00,,2013-02-07 15:11:00,
2013-02-07 10:22:00,18.0,3.0,30.56,North,9,2.0,6.0,52,0.00,,,0.00,,2013-02-07 15:22:00,
2013-02-07 10:32:00,18.0,3.0,30.56,North,5,1.0,6.0,51,0.00,,,0.00,,2013-02-07 15:32:00,
2013-02-07 10:42:00,18.0,3.0,30.56,North,5,1.0,6.0,51,0.00,,,0.00,,2013-02-07 15:42:00,
2013-02-07 10:52:00,19.0,3.0,30.56,NNW,345,2.0,6.0,50,0.00,,,0.00,,2013-02-07 15:52:00,
2013-02-07 11:01:00,20.0,4.0,30.56,NW,311,3.0,5.0,48,0.00,,,0.00,,2013-02-07 16:01:00,
2013-02-07 11:11:00,20.0,4.0,30.56,NW,311,3.0,5.0,48,0.00,,,0.00,,2013-02-07 16:11:00,
2013-02-07 11:22:00,20.0,3.0,30.56,North,349,2.0,6.0,47,0.00,,,0.00,,2013-02-07 16:22:00,
2013-02-07 11:32:00,20.0,4.0,30.55,North,7,2.0,7.0,49,0.00,,,0.00,,2013-02-07 16:32:00,
2013-02-07 11:42:00,20.0,4.0,30.55,North,7,2.0,7.0,49,0.00,,,0.00,,2013-02-07 16:42:00,
2013-02-07 11:52:00,20.0,3.0,30.55,NNW,347,2.0,6.0,47,0.00,,,0.00,,2013-02-07 16:52:00,
2013-02-07 12:01:00,21.0,5.0,30.54,NNW,334,0.0,6.0,49,0.00,,,0.00,,2013-02-07 17:01:00,
2013-02-07 12:11:00,21.0,5.0,30.54,NNW,334,0.0,6.0,49,0.00,,,0.00,,2013-02-07 17:11:00,
2013-02-07 12:22:00,21.0,4.0,30.53,NW,314,3.0,7.0,47,0.00,,,0.00,,2013-02-07 17:22:00,
2013-02-07 12:32:00,22.0,5.0,30.52,NW,324,2.0,6.0,48,0.00,,,0.00,,2013-02-07 17:32:00,
2013-02-07 12:43:00,22.0,5.0,30.52,NW,324,2.0,6.0,48,0.00,,,0.00,,2013-02-07 17:43:00,
2013-02-07 12:52:00,23.0,5.0,30.51,North,355,2.0,6.0,46,0.00,,,0.00,,2013-02-07 17:52:00,
2013-02-07 13:02:00,24.0,6.0,30.51,NNW,328,2.0,10.0,45,0.00,,,0.00,,2013-02-07 18:02:00,
2013-02-07 13:12:00,24.0,6.0,30.51,NNW,328,2.0,10.0,45,0.00,,,0.00,,2013-02-07 18:12:00,
2013-02-07 13:23:00,24.0,5.0,30.50,NNW,330,2.0,7.0,43,0.00,,,0.00,,2013-02-07 18:23:00,
2013-02-07 13:32:00,24.0,5.0,30.50,North,353,2.0,8.0,43,0.00,,,0.00,,2013-02-07 18:32:00,
2013-02-07 13:42:00,24.0,5.0,30.50,North,353,2.0,8.0,43,0.00,,,0.00,,2013-02-07 18:42:00,
2013-02-07 13:52:00,25.0,6.0,30.49,NW,310,1.0,7.0,43,0.00,,,0.00,,2013-02-07 18:52:00,
2013-02-07 14:01:00,25.0,5.0,30.48,NW,315,3.0,9.0,41,0.00,,,0.00,,2013-02-07 19:01:00,
2013-02-07 14:11:00,25.0,5.0,30.48,NW,315,3.0,9.0,41,0.00,,,0.00,,2013-02-07 19:11:00,
2013-02-07 14:22:00,25.0,5.0,30.47,NW,317,2.0,7.0,42,0.00,,,0.00,,2013-02-07 19:22:00,
2013-02-07 14:32:00,25.0,6.0,30.47,NNW,332,3.0,6.0,43,0.00,,,0.00,,2013-02-07 19:32:00,
2013-02-07 14:42:00,25.0,6.0,30.47,NNW,332,3.0,6.0,43,0.00,,,0.00,,2013-02-07 19:42:00,
2013-02-07 14:52:00,25.0,6.0,30.47,NNW,332,3.0,6.0,43,0.00,,,0.00,,2013-02-07 19:52:00,
2013-02-07 15:01:00,25.0,6.0,30.47,North,349,4.0,8.0,43,0.00,,,0.00,,2013-02-07 20:01:00,
2013-02-07 15:11:00,25.0,6.0,30.47,North,349,4.0,8.0,43,0.00,,,0.00,,2013-02-07 20:11:00,
2013-02-07 15:22:00,25.0,6.0,30.47,NNW,348,3.0,8.0,43,0.00,,,0.00,,2013-02-07 20:22:00,
2013-02-07 15:32:00,25.0,6.0,30.46,NNW,329,2.0,8.0,43,0.00,,,0.00,,2013-02-07 20:32:00,
2013-02-07 15:42:00,25.0,6.0,30.46,NNW,329,2.0,8.0,43,0.00,,,0.00,,2013-02-07 20:42:00,
2013-02-07 15:52:00,25.0,5.0,30.46,NNW,343,3.0,6.0,42,0.00,,,0.00,,2013-02-07 20:52:00,
2013-02-07 16:02:00,25.0,5.0,30.46,NNW,343,3.0,6.0,42,0.00,,,0.00,,2013-02-07 21:02:00,
2013-02-07 16:11:00,25.0,5.0,30.46,NNW,343,3.0,6.0,42,0.00,,,0.00,,2013-02-07 21:11:00,
2013-02-07 16:22:00,25.0,6.0,30.44,North,11,3.0,9.0,43,0.00,,,0.00,,2013-02-07 21:22:00,
2013-02-07 16:32:00,25.0,6.0,30.44,North,356,1.0,6.0,44,0.00,,,0.00,,2013-02-07 21:32:00,
2013-02-07 16:42:00,25.0,6.0,30.44,North,356,1.0,6.0,44,0.00,,,0.00,,2013-02-07 21:42:00,
2013-02-07 16:52:00,25.0,6.0,30.43,NNW,332,3.0,8.0,43,0.00,,,0.00,,2013-02-07 21:52:00,
2013-02-07 17:02:00,25.0,6.0,30.43,NNW,345,3.0,8.0,44,0.00,,,0.00,,2013-02-07 22:02:00,
2013-02-07 17:11:00,25.0,6.0,30.43,NNW,345,3.0,8.0,44,0.00,,,0.00,,2013-02-07 22:11:00,
2013-02-07 17:22:00,24.0,5.0,30.43,NNW,334,5.0,9.0,44,0.00,,,0.00,,2013-02-07 22:22:00,
2013-02-07 17:32:00,24.0,6.0,30.43,NNW,341,3.0,8.0,45,0.00,,,0.00,,2013-02-07 22:32:00,
2013-02-07 17:42:00,24.0,6.0,30.43,NNW,341,3.0,8.0,45,0.00,,,0.00,,2013-02-07 22:42:00,
2013-02-07 17:52:00,24.0,6.0,30.44,North,352,4.0,8.0,46,0.00,,,0.00,,2013-02-07 22:52:00,
2013-02-07 18:02:00,24.0,7.0,30.45,NNW,341,3.0,7.0,47,0.00,,,0.00,,2013-02-07 23:02:00,
2013-02-07 18:11:00,24.0,7.0,30.45,NNW,341,3.0,7.0,47,0.00,,,0.00,,2013-02-07 23:11:00,
2013-02-07 18:22:00,24.0,6.0,30.45,North,355,4.0,7.0,46,0.00,,,0.00,,2013-02-07 23:22:00,
2013-02-07 18:32:00,24.0,6.0,30.45,NNW,339,2.0,8.0,46,0.00,,,0.00,,2013-02-07 23:32:00,
2013-02-07 18:42:00,24.0,6.0,30.45,NNW,339,2.0,8.0,46,0.00,,,0.00,,2013-02-07 23:42:00,
2013-02-07 18:52:00,23.0,5.0,30.45,NNW,343,3.0,6.0,46,0.00,,,0.00,,2013-02-07 23:52:00,
2013-02-07 19:02:00,23.0,5.0,30.45,NW,322,2.0,5.0,46,0.00,,,0.00,,2013-02-08 00:02:00,
2013-02-07 19:11:00,23.0,5.0,30.45,NW,322,2.0,5.0,46,0.00,,,0.00,,2013-02-08 00:11:00,
2013-02-07 19:22:00,23.0,6.0,30.44,NNW,343,3.0,7.0,47,0.00,,,0.00,,2013-02-08 00:22:00,
2013-02-07 19:32:00,23.0,6.0,30.44,NNE,26,4.0,8.0,48,0.00,,,0.00,,2013-02-08 00:32:00,
2013-02-07 19:42:00,23.0,6.0,30.44,NNE,26,4.0,8.0,48,0.00,,,0.00,,2013-02-08 00:42:00,
2013-02-07 19:52:00,22.0,5.0,30.43,North,6,4.0,7.0,48,0.00,,,0.00,,2013-02-08 00:52:00,
2013-02-07 20:02:00,22.0,6.0,30.44,NNW,343,4.0,7.0,49,0.00,,,0.00,,2013-02-08 01:02:00,
2013-02-07 20:11:00,22.0,6.0,30.44,NNW,343,4.0,7.0,49,0.00,,,0.00,,2013-02-08 01:11:00,
2013-02-07 20:21:00,22.0,6.0,30.44,NNW,345,3.0,7.0,50,0.00,,,0.00,,2013-02-08 01:21:00,
2013-02-07 20:32:00,22.0,7.0,30.44,NW,325,2.0,4.0,51,0.00,,,0.00,,2013-02-08 01:32:00,
2013-02-07 20:42:00,22.0,7.0,30.44,NW,325,2.0,4.0,51,0.00,,,0.00,,2013-02-08 01:42:00,
2013-02-07 20:51:00,21.0,6.0,30.44,NW,314,2.0,7.0,51,0.00,,,0.00,,2013-02-08 01:51:00,
2013-02-07 21:01:00,21.0,6.0,30.43,NW,325,3.0,6.0,52,0.00,,,0.00,,2013-02-08 02:01:00,
2013-02-07 21:11:00,21.0,6.0,30.43,NW,325,3.0,6.0,52,0.00,,,0.00,,2013-02-08 02:11:00,
2013-02-07 21:22:00,21.0,7.0,30.43,NW,313,1.0,5.0,53,0.00,,,0.00,,2013-02-08 02:22:00,
2013-02-07 21:32:00,21.0,7.0,30.44,NW,317,0.0,4.0,53,0.00,,,0.00,,2013-02-08 02:32:00,
2013-02-07 21:42:00,21.0,7.0,30.44,NW,317,0.0,4.0,53,0.00,,,0.00,,2013-02-08 02:42:00,
2013-02-07 21:52:00,21.0,7.0,30.43,NW,326,1.0,4.0,53,0.00,,,0.00,,2013-02-08 02:52:00,
2013-02-07 22:02:00,21.0,7.0,30.43,NNW,327,0.0,3.0,53,0.00,,,0.00,,2013-02-08 03:02:00,
2013-02-07 22:12:00,21.0,7.0,30.43,NNW,327,0.0,3.0,53,0.00,,,0.00,,2013-02-08 03:12:00,
2013-02-07 22:22:00,21.0,7.0,30.42,NW,324,1.0,3.0,54,0.00,,,0.00,,2013-02-08 03:22:00,
2013-02-07 22:32:00,20.0,6.0,30.42,NW,317,0.0,3.0,55,0.00,,,0.00,,2013-02-08 03:32:00,
2013-02-07 22:42:00,20.0,6.0,30.42,NW,317,0.0,3.0,55,0.00,,,0.00,,2013-02-08 03:42:00,
2013-02-07 22:52:00,20.0,7.0,30.42,NNW,329,2.0,4.0,56,0.00,,,0.00,,2013-02-08 03:52:00,
2013-02-07 23:02:00,20.0,7.0,30.42,NW,308,0.0,3.0,57,0.00,,,0.00,,2013-02-08 04:02:00,
2013-02-07 23:11:00,20.0,7.0,30.42,NW,308,0.0,3.0,57,0.00,,,0.00,,2013-02-08 04:11:00,
2013-02-07 23:21:00,20.0,7.0,30.42,NW,317,0.0,3.0,57,0.00,,,0.00,,2013-02-08 04:21:00,
2013-02-07 23:32:00,20.0,8.0,30.41,NW,314,1.0,3.0,58,0.00,,,0.00,,2013-02-08 04:32:00,
2013-02-07 23:42:00,20.0,8.0,30.41,NW,314,1.0,3.0,58,0.00,,,0.00,,2013-02-08 04:42:00,
2013-02-07 23:51:00,20.0,8.0,30.40,NNW,329,3.0,4.0,58,0.00,,,0.00,,2013-02-08 04:51:00,